Simultaneous Nadir Overpasses (SNOs) Predictions

Prediction of SNOs between NOAA-19 and TERRA Satellite Orbit:

Table of predicted SNOs for the next 14.0 days since TLE Epoch: 2/1/2020
Index Date (NOAA-19) Time (NOAA-19) Lat,Lon (NOAA-19) SZA (NOAA-19 ) Date (TERRA) Time (TERRA) Lat,Lon (TERRA) SZA (TERRA ) Distance(km) Time Diff (sec)
1 02/01/2020 16:10:35 79.15, -36.63 97.01 02/01/2020 16:10:39 79.16, -36.69 97.01 1.56 4
2 02/03/2020 21:43:54 -79.18, 59.83 83.63 02/03/2020 21:44:25 -79.18, 60.00 83.61 3.54 31
3 02/03/2020 22:34:54 79.13,-132.51 96.35 02/03/2020 22:33:52 79.14,-132.58 96.34 1.85 62
4 02/06/2020 03:17:15 79.17, 156.66 95.71 02/06/2020 03:18:11 79.20, 156.70 95.75 3.28 56
5 02/06/2020 04:08:14 -79.15, -35.89 84.32 02/06/2020 04:07:39 -79.17, -35.88 84.31 1.85 35
6 02/08/2020 09:41:35 79.16, 60.77 95.01 02/08/2020 09:41:25 79.19, 60.79 95.03 2.77 10
7 02/10/2020 15:14:56 -79.17, 157.43 85.70 02/10/2020 15:15:13 -79.17, 157.26 85.71 3.49 17
8 02/10/2020 16:05:51 79.02, -34.08 94.24 02/10/2020 16:04:40 79.13, -35.37 94.23 29.54 71
9 02/12/2020 20:48:16 79.19,-106.00 93.58 02/12/2020 20:48:59 79.18,-106.12 93.58 2.75 43
10 02/12/2020 21:39:17 -79.17, 61.41 86.44 02/12/2020 21:38:27 -79.16, 61.35 86.48 2.31 50




NCC Satellite Simultaneous Nadir Overpasses (SNOs) Prediction Service
